Weather History for Sheridan, WY

Change the Weather History Date:

Sunday, October 21, 2012

  Actual Average Record
Temperature  
Mean Temperature 43 °F 44 °F  
Max Temperature 47 °F 58 °F 84 °F (2003)
Min Temperature 38 °F 29 °F 17 °F (1984)
Degree Days  
Heating Degree Days 22 21  
Month to date heating degree days 370 372  
Since 1 July heating degree days 520 675  
Cooling Degree Days 0 0  
Month to date cooling degree days 0 0  
Year to date cooling degree days 664 418  
Moisture  
Dew Point 39 °F    
Average Humidity 85    
Maximum Humidity 100    
Minimum Humidity 70    
Precipitation  
Precipitation 0.14 in 0.04 in 0.91 in (1953)
Month to date precipitation 0.86 1.07  
Year to date precipitation 7.85 12.55  
Sea Level Pressure  
Sea Level Pressure 29.89 in    
Wind  
Wind Speed 5 mph (East)    
Max Wind Speed 18 mph    
Max Gust Speed 23 mph    
Visibility 7 miles    
Events Rain    
T = Trace of Precipitation, MM = Missing Value Source: NWS Daily Summary

Daily Weather History Graph

Daily Weather History Graph

Search for Another Location

Airport:

Trip Planner

Search our weather history database for the weather conditions in past years. The results will help you decide how hot, cold, wet, or windy it might be!

Date:

Astronomy

Oct. 21, 2012 Rise Set
Actual Time 7:31 AM MDT 6:12 PM MDT
Civil Twilight 7:02 AM MDT 6:42 PM MDT
Nautical Twilight 6:27 AM MDT 7:16 PM MDT
Astronomical Twilight 5:54 AM MDT 7:49 PM MDT
Moon 1:59 PM MDT (10/21) No Moon Set
Length of Visible Light 11h 39m
Length of Day
10h 40m
Waxing Crescent, 46% of the Moon is Illuminated
Oct 21
Waxing Crescent
Oct 21
First Quarter
Oct 29
Full
Nov 6
Last Quarter
Nov 13
New

Hourly Weather History & Observations

Time (MDT) Temp. Windchill Dew Point Humidity Pressure Visibility Wind Dir Wind Speed Gust Speed Precip Events Conditions
12:53 AM 46.9 °F - 39.9 °F 77% 29.77 in 10.0 mi Variable 3.5 mph - N/A   Overcast
1:53 AM 45.0 °F 38.9 °F 42.1 °F 90% 29.79 in 8.0 mi North 12.7 mph - 0.01 in   Overcast
2:23 AM 42.8 °F 37.0 °F 42.8 °F 100% 29.85 in 5.0 mi NW 10.4 mph - 0.01 in Rain Light Rain
2:32 AM 42.8 °F 37.5 °F 41.0 °F 93% 29.86 in 10.0 mi NW 9.2 mph - 0.01 in   Overcast
2:53 AM 43.0 °F 38.8 °F 41.0 °F 93% 29.82 in 10.0 mi NW 6.9 mph - 0.01 in   Overcast
3:35 AM 42.8 °F 38.6 °F 41.0 °F 93% 29.87 in 10.0 mi WNW 6.9 mph - N/A   Overcast
3:53 AM 43.0 °F 37.7 °F 41.0 °F 93% 29.85 in 8.0 mi NW 9.2 mph - N/A   Overcast
4:01 AM 39.2 °F 31.6 °F 37.4 °F 93% 29.88 in 6.0 mi North 12.7 mph 23.0 mph 0.00 in Rain Light Rain
4:08 AM 39.2 °F 30.8 °F 37.4 °F 93% 29.89 in 8.0 mi North 15.0 mph - 0.01 in Rain Light Rain
4:43 AM 39.2 °F 33.6 °F 37.4 °F 93% 29.89 in 7.0 mi NW 8.1 mph - 0.04 in Rain Light Rain
4:53 AM 39.0 °F 32.8 °F 37.9 °F 96% 29.87 in 8.0 mi NW 9.2 mph - 0.04 in Rain Light Rain
5:53 AM 39.0 °F - 37.0 °F 93% 29.88 in 10.0 mi Calm Calm - 0.00 in   Overcast
6:53 AM 39.0 °F - 37.9 °F 96% 29.87 in 10.0 mi Calm Calm - N/A   Overcast
7:53 AM 39.0 °F - 37.9 °F 96% 29.90 in 5.0 mi Calm Calm - N/A   Overcast
8:28 AM 39.2 °F - 37.4 °F 93% 29.89 in 2.0 mi Calm Calm - 0.01 in   Overcast
8:39 AM 39.2 °F - 37.4 °F 93% 29.90 in 5.0 mi Calm Calm - 0.01 in   Overcast
8:53 AM 39.0 °F - 39.0 °F 100% 29.91 in 2.5 mi Calm Calm - 0.01 in   Overcast
9:03 AM 39.2 °F - 39.2 °F 100% 29.90 in 1.5 mi Calm Calm - 0.01 in   Overcast
9:32 AM 39.2 °F 35.9 °F 39.2 °F 100% 29.91 in 2.5 mi WNW 4.6 mph - 0.02 in   Overcast
9:53 AM 39.9 °F 37.8 °F 39.0 °F 97% 29.93 in 2.5 mi WNW 3.5 mph - 0.03 in   Overcast
10:25 AM 41.0 °F 39.0 °F 39.2 °F 93% 29.91 in 1.5 mi NE 3.5 mph - 0.01 in Rain Light Rain
10:53 AM 41.0 °F 37.1 °F 39.9 °F 96% 29.93 in 1.5 mi East 5.8 mph - 0.03 in   Overcast
11:14 AM 41.0 °F 38.0 °F 41.0 °F 100% 29.91 in 2.5 mi East 4.6 mph - 0.00 in   Overcast
11:35 AM 42.8 °F 38.0 °F 39.2 °F 87% 29.91 in 3.0 mi ESE 8.1 mph - 0.01 in   Overcast
11:51 AM 42.8 °F 38.6 °F 41.0 °F 93% 29.91 in 5.0 mi East 6.9 mph - 0.01 in   Overcast
11:53 AM 42.1 °F 37.1 °F 41.0 °F 96% 29.93 in 5.0 mi ESE 8.1 mph - 0.01 in   Overcast
12:17 PM 42.8 °F 38.0 °F 39.2 °F 87% 29.91 in 5.0 mi ESE 8.1 mph - N/A   Overcast
12:30 PM 42.8 °F 38.6 °F 41.0 °F 93% 29.90 in 10.0 mi SE 6.9 mph - N/A   Overcast
12:37 PM 42.8 °F 36.6 °F 41.0 °F 93% 29.88 in 10.0 mi SE 11.5 mph - N/A   Overcast
12:53 PM 43.0 °F 37.7 °F 41.0 °F 93% 29.91 in 10.0 mi ESE 9.2 mph - N/A   Overcast
1:14 PM 44.6 °F 39.7 °F 41.0 °F 87% 29.89 in 10.0 mi ESE 9.2 mph - N/A   Overcast
1:53 PM 45.0 °F 39.7 °F 39.9 °F 82% 29.88 in 10.0 mi ESE 10.4 mph - N/A   Overcast
2:53 PM 46.0 °F 40.6 °F 39.9 °F 79% 29.88 in 10.0 mi East 11.5 mph - N/A   Overcast
3:53 PM 46.0 °F 40.6 °F 39.0 °F 76% 29.88 in 10.0 mi East 11.5 mph 17.3 mph N/A   Overcast
4:53 PM 46.0 °F 41.9 °F 37.0 °F 71% 29.90 in 10.0 mi ESE 8.1 mph - N/A   Overcast
5:53 PM 45.0 °F 40.6 °F 35.1 °F 68% 29.91 in 10.0 mi ESE 8.1 mph - N/A   Overcast
6:53 PM 45.0 °F 41.8 °F 36.0 °F 71% 29.92 in 10.0 mi ESE 5.8 mph - N/A   Overcast
7:53 PM 44.1 °F 41.5 °F 36.0 °F 73% 29.92 in 10.0 mi SE 4.6 mph - N/A   Overcast
8:53 PM 44.1 °F 42.5 °F 35.1 °F 71% 29.92 in 10.0 mi SSE 3.5 mph - N/A   Overcast
9:53 PM 43.0 °F - 35.1 °F 74% 29.92 in 10.0 mi Calm Calm - N/A   Overcast
10:53 PM 42.1 °F - 34.0 °F 73% 29.91 in 10.0 mi Calm Calm - N/A   Mostly Cloudy
11:10 PM 39.2 °F - 35.6 °F 87% 29.88 in 10.0 mi Calm Calm - N/A   Mostly Cloudy
11:53 PM 41.0 °F - 36.0 °F 82% 29.90 in 10.0 mi Calm Calm - N/A   Overcast